Location: Unspecified
(0.0000°N, 0.0000°E)
Time: 13:56:48
(UTC+02:00)

Vanguard 1 - Visible Passes

Search period start: 26 June 2016 00:00
Search period end: 06 July 2016 00:00
Orbit: 649 x 3835 km, 34.3° (Epoch: 24 June)

Date Brightness Start Highest point End Pass type
(mag) Time Alt. Az. Time Alt. Az. Time Alt. Az.
26 Jun 12.5 20:02:54 10° NW 20:25:42 76° NE 20:39:21 10° ESE visible
26 Jun 12.2 22:33:30 10° WNW 22:49:25 39° SW 22:52:21 35° SSW visible
27 Jun 12.4 20:24:42 10° NW 20:47:18 87° SW 20:59:41 14° SE visible
27 Jun 12.6 22:57:16 10° W 23:10:31 28° SW 23:12:26 27° SSW visible
28 Jun 11.8 06:22:40 10° SSE 06:24:15 11° SE 06:25:57 10° ESE visible
28 Jun 12.5 20:46:50 10° WNW 21:08:42 70° SW 21:19:46 17° SE visible
28 Jun 12.9 23:21:56 10° W 23:31:48 19° SW 23:32:30 19° SW visible
29 Jun 11.4 06:42:00 12° S 06:45:11 21° SE 06:49:54 10° E visible
29 Jun 12.5 21:09:23 10° WNW 21:29:59 55° SW 21:39:50 20° SSE visible
29 Jun 13.3 23:48:06 10° WSW 23:52:34 13° SW 23:52:34 13° SW visible
30 Jun 10.7 07:02:06 13° SSW 07:06:02 38° SE 07:12:22 10° ENE visible
30 Jun 12.6 21:32:29 10° WNW 21:51:14 42° SW 21:59:54 21° SSE visible
01 Jul 10.0 07:22:13 10° SW 07:26:55 70° SE 07:34:13 10° ENE visible
01 Jul 12.7 21:56:17 10° W 22:12:34 31° SW 22:19:58 20° S visible
02 Jul 12.9 22:20:57 10° W 22:34:05 23° SW 22:40:00 17° S visible
03 Jul 11.3 05:49:41 20° SE 05:49:41 20° SE 05:52:53 10° E visible
03 Jul 13.0 20:08:31 10° WNW 20:30:53 56° SW 20:45:40 10° SE visible
03 Jul 13.1 22:46:42 10° WSW 22:55:54 16° SW 23:00:02 14° SSW visible
04 Jul 10.1 06:09:48 38° SSE 06:10:03 39° SE 06:15:06 10° ENE visible
04 Jul 13.1 20:31:33 10° WNW 20:52:22 44° SW 21:06:19 10° SSE visible
04 Jul 13.3 23:14:23 10° SW 23:18:02 11° SSW 23:20:04 11° SSW visible
05 Jul 9.3 06:29:54 51° SW 06:31:00 77° SE 06:36:43 10° ENE visible
05 Jul 13.1 20:55:16 10° W 21:13:59 34° SW 21:26:48 10° SSE visible
